P 328 H 12.6 G 0.15
From 16 observati...
|
|
|
|
|
|
Asteroid 2013 CV82
(Preview)
|
Asteroids 2013
|
0
|
1774
|
|
|
Orbital elements:
2013 CV82
Epoch 2013 Jan. 28.0 TT = JDT 2456320.5 MPC
M 0.94725 (2000.0) P Q
n 0.00065732 Peri. 285.82577 +0.42082235 -0.88365912
a 131.0047359 Node 137.34108 +0.90406930 +0.38994493
e 0.9411322 Incl. 17.61577 +0.07461403 +0.25901644
P1499 H 11.5 G 0.15
From 15 obser...
|
|
|
|
|
|
Asteroid 2011 HE103
(Preview)
|
Asteroids 2013
|
0
|
1700
|
|
|
Orbital elements:
2011 HE103
Epoch 2013 Apr. 18.0 TT = JDT 2456400.5 MPC
M 162.34803 (2000.0) P Q
n 0.00342036 Peri. 213.20899 -0.39852395 -0.90960615
a 43.6269568 Node 260.51729 +0.86528863 -0.33043367
e 0.0862399 Incl. 6.83905 +0.30406289 -0.25185359
P 288 H 9.5 G 0.15 U 4 MPEC 2013 - E2...
|
|
|
|
|
|
Asteroid 2011 QF99
(Preview)
|
Asteroids 2013
|
4
|
4468
|
|
|
Orbital elements:
2011 QF99
Epoch 2013 Apr. 18.0 TT = JDT 2456400.5 MPC
M 266.87910 (2000.0) P Q
n 0.01175115 Peri. 286.31989 -0.84417198 -0.52091457
a 19.1608990 Node 222.51181 +0.53486523 -0.80261768
e 0.1767221 Incl. 10.79614 +0.03595634 -0.29060776
P 83.87 H 9.7 G 0.15 U 3 MPEC 2013 -...
|
|
|
|
|
|
TNO (120347) Salacia
(Preview)
|
Asteroids 2013
|
2
|
3871
|
|
|
[url=http://en.wikipedia.org/wiki/120347_Salacia]Read
|
|
|
|
|
|
Asteroid 2013 JX14
(Preview)
|
Asteroids 2013
|
0
|
1938
|
|
|
Orbital elements:
2013 JX14
Epoch 2013 Apr. 18.0 TT = JDT 2456400.5 MPC
M 348.39889 (2000.0) P Q
n 0.01577073 Peri. 17.90681 -0.04301789 +0.98867145
a 15.7483415 Node 249.82305 -0.93435052 -0.09077533
e 0.5416487 Incl. 8.81247 -0.35374931 +0.11953497
P 62.5 H 12.0 G 0.15
From 15 observ...
|
|
|
|
|
|
Asteroid 2011 HO60
(Preview)
|
Asteroids 2013
|
0
|
1716
|
|
|
Orbital elements:
2011 HO60
Epoch 2013 Apr. 18.0 TT = JDT 2456400.5 MPC
M 359.29830 (2000.0) P Q
n 0.00109777 Peri. 241.93118 -0.56371915 +0.82475730
a 93.0670672 Node 353.21654 -0.56042213 -0.42166153
e 0.6063661 Incl. 22.22528 -0.60675181 -0.37679828
P 898 H 6.1 G 0.15 U 5 MPEC 2013 - L2...
|
|
|
|
|
|
Asteroid 2013 LD16
(Preview)
|
Asteroids 2013
|
0
|
1677
|
|
|
Orbital elements:
2013 LD16
Epoch 2013 May 28.0 TT = JDT 2456440.5 MPC
M 359.59422 (2000.0) P Q
n 0.00293016 Peri. 185.10346 -0.93323409 -0.30882793
a 48.3661853 Node 25.56944 -0.31273998 +0.94980517
e 0.9471157 Incl. 154.82850 -0.17682714 -0.04995441
P 336 H 16.5 G 0.15
From 26 observ...
|
|
|
|
|
|
TNO 2001 QF298
(Preview)
|
Asteroids 2014
|
0
|
2203
|
|
|
TNO 2001 QF298 is at Opposition (42.304 AU) on the 26th September 2014 EphemerisDate TT R. A. (2000) Decl. Delta r Elong. Phase Mag
2014 09 25 00 18 32.4 -05 56 22 42.3103 43.3054 172.7 0.2 21.5
2014 09 26 00 18 28.1 -05 56 55 42.3108 43.3055 172.7 0.2 21.5
2014 09 27 00 18 23.8 -05 57 27 42.3115 43.3056 172...
|
|
|
|
|